Location: Worth Mountain WMA
(34.9569°N, 81.4819°W)
Time: 14:35:12
(UTC-04:00)

Daily predictions for brighter satellites

Satellite Brightness Start Highest point End
(mag) Time Altitude Azimuth Time Altitude Azimuth Time Altitude Azimuth
Cosmos 1844 Rocket 3.8 20:55:03 10° SSE 20:59:21 23° E 21:03:39 10° NE
Meteor 2-3 Rocket 3.8 20:57:19 10° S 21:02:52 62° E 21:08:23 10° NNE
CZ-2D R/B 3.2 21:00:37 10° SSE 21:04:25 85° ENE 21:08:15 10° N
Cosmos 1869 Rocket 4.1 21:01:56 10° SSW 21:06:19 66° W 21:10:40 10° N
Meteor 1-26 Rocket 4.3 21:01:17 10° N 21:07:10 78° E 21:13:03 10° SSE
H-2A R/B 3.7 21:04:43 10° ESE 21:07:47 19° ENE 21:10:49 10° NNE
CZ-3A R/B 4.5 12:54:58 10° SW 21:09:14 48° SSW 21:14:40 10° SE
NOSS 2-2 (C) 3.5 21:07:55 10° SSW 21:11:50 52° ESE 21:16:09 10° NE
Cosmos 2263 Rocket 3.4 21:08:51 10° SW 21:14:19 49° WNW 21:19:48 10° N
FENGYUN 3A 3.8 21:09:53 10° S 21:15:17 83° WSW 21:20:42 10° NNW
Cosmos 1340 Rocket 2.7 21:11:45 10° S 21:15:41 76° E 21:19:42 10° NNE
NOSS 8 (A) 4.4 21:15:11 10° SSW 21:18:46 74° ESE 21:22:20 10° NE
Resurs 01 Rocket 4.1 21:15:32 10° SSW 21:18:55 22° W 21:22:20 10° NW
Cosmos 1624 Rocket 4.1 21:15:02 10° S 21:20:08 56° ESE 21:25:19 10° NNE
Envisat 3.9 21:16:53 10° SE 21:21:19 31° ENE 21:25:46 10° N
Cosmos 1939 Rocket 3.7 21:20:37 12° SE 21:23:44 31° ENE 21:27:10 10° N
Atlas Centaur 2 1.7 21:20:33 10° WSW 21:23:51 37° S 21:26:35 14° ESE
BREEZE-M DEB (TANK) 3.1 21:22:38 10° NNW 21:24:30 30° NE 21:26:55 13° ESE
Cosmos 1782 4.1 21:22:37 10° NNE 21:25:56 24° ENE 21:28:20 15° ESE
Okean 1-7 3.5 21:24:09 10° NNW 21:28:24 63° W 21:32:40 10° S
SJ-11-01 4.5 21:23:47 10° SSE 21:28:25 57° ENE 21:33:06 10° N
Sich 1 Rocket 4.5 21:26:39 10° SSE 21:30:39 31° E 21:34:42 10° NNE
NOSS 2-2 (E) 3.6 21:26:42 10° SSW 21:30:46 83° WNW 21:35:23 10° NNE
SPOT 5 4.1 21:28:50 14° ESE 21:32:31 30° ENE 21:37:05 10° N
ALOS 3.3 21:28:25 10° S 21:32:54 46° W 21:37:24 10° NNW
Meteor 2-10 Rocket 3.8 21:29:41 10° N 21:35:29 67° E 21:41:07 10° SSE
ERBS 3.8 21:33:25 10° NNW 21:36:25 26° NE 21:38:24 16° E
Cosmos 1674 Rocket 4.2 21:34:54 10° N 21:39:05 38° E 21:41:52 18° SE
Cosmos 1606 4.3 21:37:09 10° NNE 21:40:09 20° ENE 21:41:21 18° ESE
Cosmos 1892 2.9 21:40:14 10° SSW 21:44:01 71° W 21:47:52 10° N
Cosmos 1452 Rocket 4.2 21:39:26 10° SSE 21:44:06 33° E 21:48:48 10° NE
ERS-1 Rocket 3.0 21:42:14 10° SSE 21:47:17 89° ENE 21:52:21 10° NNW
GPS 2-05 Rocket1 3.6 21:48:36 10° SW 21:51:58 34° SSE 21:52:52 29° SE
Cosmos 1190 Rocket 4.3 21:48:46 10° N 21:53:48 49° ENE 21:56:41 24° SE
PSLV R/B 4.2 21:53:35 10° WNW 21:56:55 44° NNE 21:58:46 23° ENE
Meteor 2-6 Rocket 4.3 21:53:00 10° N 21:58:56 66° E 22:03:02 20° SSE
Coronas F rocket 3.4 21:57:54 10° SW 22:00:14 27° W 22:02:34 10° NNW
Abrixas rocket 2.7 21:59:38 10° WNW 22:02:59 52° SW 22:04:01 36° SSE
Cosmos 2154 Rocket 4.0 21:59:09 11° S 22:04:59 63° E 22:11:07 10° NNE
Cosmos 1975 Rocket 4.3 22:03:49 10° NNE 22:07:19 24° ENE 22:07:44 23° E
USA 234 3.5 22:01:56 10° ENE 22:08:04 42° SE 22:14:09 10° SSW
MetOp-B 4.3 22:07:40 28° SE 22:10:22 56° ENE 22:15:36 10° N
deb Chang Zheng 4 4.2 22:06:45 10° N 22:11:06 59° WNW 22:15:26 10° SSW
CZ-4B R/B 3.8 22:07:50 10° NNE 22:12:32 42° E 22:14:00 33° SE
Cosmos 1908 Rocket 3.4 22:10:37 23° S 22:13:20 76° E 22:17:45 10° N
COSMOS 2406 3.3 22:11:15 10° NNW 22:17:00 76° WSW 22:20:20 26° S
USA 245 4.0 22:19:18 29° NE 22:19:18 29° NE 22:21:56 10° N
TIMED 4.4 22:17:05 16° SSW 22:20:35 86° ESE 22:24:58 10° NNE
NOSS 5 (C) 4.3 22:17:47 10° SSW 22:21:28 87° WNW 22:24:37 10° NNE
ARGOS 3.7 22:19:51 32° ESE 22:21:32 42° ENE 22:26:32 10° N
STPSAT 2 (USA 217) 4.5 22:17:34 10° SSW 22:22:03 89° WNW 22:26:33 10° NNE
Cosmos 1378 Rocket 3.6 22:19:11 10° N 22:23:27 59° E 22:24:18 48° SE
Cosmos 676 Rocket 4.2 22:18:40 10° N 22:23:46 55° ENE 22:25:21 39° ESE
Cosmos 1184 Rocket 3.5 22:24:37 41° NE 22:24:37 41° NE 22:27:09 10° NNE
ATLAS 5 CENTAUR R/B 2.5 22:19:28 10° NW 22:25:37 75° WSW 22:28:52 31° SSE
CZ-3C R/B 3.6 22:06:26 10° WSW 22:28:12 29° SSW 22:30:49 25° SSE
CZ-4 R/B 4.0 22:25:31 10° NNE 22:30:01 46° E 22:30:17 45° ESE
Cosmos 1862 3.4 22:28:46 35° SSW 22:30:23 78° W 22:34:29 10° N
Cosmos 1954 Rocket 4.3 22:25:42 10° N 22:30:44 48° ENE 22:31:54 41° ESE
Cosmos 2278 Rocket 2.1 22:27:11 16° S 22:31:47 73° ESE 22:37:27 10° NNE
Cosmos 1844 4.0 22:29:08 10° SSW 22:34:49 68° WNW 22:40:37 10° NNE
Cosmos 1825 2.3 22:37:57 52° SW 22:38:44 70° W 22:42:33 10° N
CENTAUR R/B 3.7 22:31:31 10° NW 22:39:14 52° WSW 22:44:20 23° S
Cosmos 2084 3.2 22:37:52 34° SW 22:39:28 80° WNW 22:43:18 10° NNE
SL-27 R/B 3.6 22:38:48 10° NNW 22:42:11 37° WSW 22:42:44 35° SW
Cosmos 1844 Rocket 3.9 22:37:35 10° SW 22:42:54 41° WNW 22:48:14 10° N
H-2A R/B 3.6 22:41:12 19° SSW 22:43:34 31° W 22:47:23 10° NW
COSMOS 2487 3.5 22:42:06 10° N 22:44:48 38° NNE 22:44:48 38° NNE
COS B Rocket 4.4 22:42:03 10° NNW 22:45:58 42° W 22:47:18 30° SW
CZ-4C R/B 4.5 22:51:49 32° NE 22:51:49 32° NE 22:54:35 10° N
YAOGAN 6 3.3 22:52:00 47° W 22:52:00 47° W 22:55:17 10° NNW
Cosmos 1408 3.6 22:52:39 37° WSW 22:53:18 41° W 22:56:48 10° N
Cosmos 2082 Rocket 3.5 22:50:03 10° N 22:54:43 25° ENE 22:55:25 25° ENE
Meteor 1-27 Rocket 4.3 22:53:13 10° NNW 22:58:34 50° W 23:00:52 31° SSW
Cosmos 2218 Rocket 4.0 22:59:14 53° SSE 23:00:37 67° E 23:06:58 10° NNE
Cosmos 2297 3.6 23:02:58 65° SE 23:03:15 66° ESE 23:08:56 10° NNE
Okean 2 Rocket 3.5 23:02:50 53° WSW 23:03:28 59° W 23:07:51 10° N
Landsat 7 3.9 23:05:01 64° ENE 23:05:01 64° ENE 23:09:32 10° N
Cosmos 1023 Rocket 4.4 23:00:25 10° NNW 23:05:31 68° ENE 23:05:34 68° ENE
H-2A R/B 2.3 23:05:41 56° E 23:05:54 56° ENE 23:11:09 10° N
SL-08 R/B 4.4 23:06:34 57° SSE 23:07:52 74° E 23:14:20 10° N
DELTA 2 DEB (DPAF) 4.4 23:09:30 62° NNE 23:09:30 62° NNE 23:13:24 10° N
Cosmos 1420 Rocket 4.2 23:08:59 45° SW 23:10:33 69° WNW 23:15:47 10° NNE
Cosmos 1238 Rocket 4.2 23:08:20 10° NNW 23:10:41 29° WNW 23:10:41 29° WNW
Cosmos 1242 Rocket 3.8 23:08:15 10° NNW 23:10:42 40° NNW 23:10:42 40° NNW
Atlas Centaur 2 3.7 23:08:48 10° WSW 23:09:16 13° WSW 23:09:16 13° WSW
NOAA 11 4.5 23:14:13 52° SW 23:15:12 61° WSW 23:20:40 10° NNW
Terra 2.2 23:21:17 56° NNE 23:21:17 56° NNE 23:25:18 10° N
SPOT 1/Viking Rocket 4.3 23:20:10 39° SW 23:21:05 43° W 23:26:02 10° NNW
Cosmos 1727 Rocket 4.0 23:15:32 10° N 23:21:38 60° E 23:21:45 60° E
Cosmos 1959 Rocket 4.4 23:22:49 59° SSW 23:24:02 78° W 23:30:10 10° N
ASTEX 1 4.5 23:22:36 10° NNE 23:25:46 34° NE 23:25:46 34° NE
Timation 2 Rocket 3.7 23:29:00 10° NNW 23:35:00 87° WSW 23:35:01 87° WSW
Cosmos 614 Rocket 4.2 23:30:08 10° NNW 23:34:27 64° N 23:34:27 64° N
Cosmos 1140 Rocket 3.9 23:33:20 10° NNW 23:37:56 54° W 23:37:56 54° W
DNEPR-1 R/B 4.4 23:37:07 10° NNW 23:41:08 53° NNW 23:41:08 53° NNW
Meteor 1-20 Rocket 4.4 23:43:42 66° NNE 23:43:42 66° NNE 23:48:30 10° N
Meteor 1-25 Rocket 4.3 23:47:59 75° WNW 23:47:59 75° WNW 23:53:39 10° N
Cosmos 1339 Rocket 4.4 23:44:17 10° N 23:50:09 81° NNE 23:50:09 81° NNE
USA 234 4.1 23:44:49 10° NNE 23:51:02 49° NW 23:57:14 10° WSW
